Погода в Чистом Доре

Россия / Вологодская область     60°09′40″N   38°21′39″E
темп.,
°C
ветер,
м/с
пор.,
м/с
влажн.,
%
обл.,
%
осадки,
мм/ч
давл.,
гПа
погр.,
м
21 апреля, ср
ср2100:00+3в31064100 0.0 1020315
03:00+2в3971100 0.0 1018315
06:00+2всв41272100 0.0 1014469
09:00+2в61476100 0.2 1010822
12:00+3вюв51294100 1.1 1007899
15:00+1в51498100 5.2 1004726
18:00+3юв61297100 3.2 10011107
21:00+1ю51096100 3.8 1004909
22 апреля, чт
чт2200:00+1ю41094100 0.2 1005735
03:00+2ю41195100 0.4 1006648
06:00+2ю41097100 0.1 1007585
09:00+5ю41191100 0.1 1007542
12:00+7ююз6118699 0.2 10081026
15:00+7ююз51086100 0.7 1009948
18:00+8ю498534 0.1 1010709
21:00+5ююв310965 0.3 1012263
23 апреля, пт
пт2300:00+4ююв312952 0.0 1012280
03:00+4юв412955 0.0 1011317
06:00+4ююв41395100 0.0 1011438
09:00+8ююв51287100 0.0 1010574
12:00+9ю51086100 0.0 10111095
15:00+11ю41078100 0.1 10111240
18:00+10ююз51182100 0.5 10111020
21:00+5ю1495100 1.8 1013171
24 апреля, сб
сб2400:00+5юв2498100 2.6 1012166
03:00+5св1199100 3.0 101125
06:00+6вюв4119481 0.1 1009488
09:00+10юв51478100 0.1 1007905
12:00+13юв7146432 0.7 10051944
15:00+14юв6125919 1.4 10041928
18:00+12вюв71370100 1.2 10021200
21:00+10вюв61472100 1.7 10021295
25 апреля, вс
вс2500:00+8вюв61380100 0.0 1000950
03:00+7вюв4985100 0.4 9991037
06:00+6в51383100 0.0 1000748
09:00+7в51182100 0.1 9991144
12:00+6всв4992100 0.3 9991115
15:00+5вюв4878100 0.7 1000997
18:00+4ююв4679100 0.1 1001811
21:00+2юв3791100 0.1 1002596